Regional Weather Roundup
Issued by NWS

Home | Current Version | Previous Version | Text Only | Print | Product List | Glossary On
Versions: 1 2 3 4 5 6 7 8 9 10 11 12 13 14 15 16 17 18 19 20 21 22 23 24 25 26 27 28 29 30 31 32 33 34 35 36 37 38 39 40 41 42 43 44 45 46 47 48 49 50
000
ASUS43 KDTX 250110
RWRMI
MICHIGAN HOURLY REGIONAL WEATHER ROUNDUP
NATIONAL WEATHER SERVICE DETROIT/PONTIAC MI
800 PM EST WED DEC 24 2014

NOTE: "FAIR" INDICATES FEW OR NO CLOUDS BELOW 12,000 FEET WITH NO
SIGNIFICANT WEATHER AND/OR OBSTRUCTION TO VISIBILITY.

MIZ047>049-052>055-059>063-066>070-074>076-081>083-250200-
SOUTHEAST LOWER MICHIGAN

CITY           SKY/WX    TMP DP  RH WIND       PRES   REMARKS
ADRIAN         LGT RAIN  35  33  92 W20G30    29.41R WCI  24
ALMA           LGT SNOW  33  33 100 W9        29.36R WCI  26
ANN ARBOR      MIX PCPN  37  35  92 W21G35    29.35R FOG     WCI  26
BAD AXE        LGT SNOW  37  37 100 NW14G21   29.24S WCI  28
CARO           MIX PCPN  36  34  94 NW15      29.26F WCI  26
DETROIT CITY   CLOUDY    43  38  82 W17G25    29.28R
DETROIT        LGT RAIN  40  38  93 SW18      29.31R WCI  31
FLINT          LGT RAIN  38  34  85 W20G26    29.30R WCI  28
GROSSE ILE     CLOUDY    39  37  93 W14G20    29.30R FOG     WCI  31
HILLSDALE      LGT SNOW  34  34 100 W16G23    29.42R WCI  24
HOWELL         LGT SNOW  34  34 100 W18G24    29.33R WCI  23

CITY           SKY/WX    TMP DP  RH WIND       PRES   REMARKS
JACKSON        LGT SNOW  33  32  96 W12G22    29.39R FOG     WCI  24
LAMBERTVILLE   LGT RAIN  37  36  93 W20G28    29.40R WCI  27
LANSING        LGT SNOW  33  32  96 W16       29.39R FOG     WCI  23
LAPEER         LGT RAIN  37  37  98 NE18G24   29.14F WCI  27
MASON          LGT SNOW  32  31  98 W15G21    29.37R WCI  22
MONROE         DRIZZLE   39  39 100 W32G39    29.35R WCI  27
MT. CLEMENS    CLOUDY    41 N/A N/A W10       29.21R
PONTIAC        LGT RAIN  38  37  97 W14       29.27R WCI  30
PORT HOPE        N/A     38  36  92 NW7       29.19F WCI  33
PORT HURON     RAIN      41  41 100 W10       29.24R
TRI CITIES     LGT RAIN  36  33  89 W18G29    29.28F WCI  26
TROY           CLOUDY    41  38  89 SW8       29.28R
SAGINAW HB     FLURRIES  34  34 100 N17G25    29.19F WCI  23
$$
MIZ043>046-050>051-056>058-064>065-071>073-077>080-250200-
SOUTHWEST LOWER MICHIGAN

CITY           SKY/WX    TMP DP  RH WIND       PRES   REMARKS
BATTLE CREEK   LGT SNOW  34  32  92 W12       29.44R FOG     WCI  25
BENTON HARBOR  LGT RAIN  37  35  92 W16       29.50R WCI  28
BIG RAPIDS     LGT SNOW  34  34 100 W8        29.37R WCI  28
COLDWATER      LGT SNOW  33  32  98 MISG      29.45R
FREMONT        LGT SNOW  33  33  99 W6        29.41R WCI  28
HOLLAND        LGT RAIN  39  34  82 W10       29.46R WCI  32
GRAND RAPIDS   FLURRIES  35  33  92 W10       29.43R WCI  27
IONIA          LGT SNOW  34  34  99 W10       29.39R WCI  26
KALAMAZOO      FLURRIES  35  32  88 W12       29.46R WCI  27
LUDINGTON      RAIN      37  36  93 NW13      29.41F WCI  29
MARSHALL       LGT SNOW  32  32  99 W9        29.43R WCI  24
MOUNT PLEASANT LGT RAIN  34  33  97 CALM      29.31S
MUSKEGON       LGT RAIN  38  35  89 NW8       29.44R WCI  32
SOUTH HAVEN    RAIN      38  36  92 W10       29.48R WCI  31
$$
MIZ016>042-250200-
NORTHERN LOWER MICHIGAN

CITY           SKY/WX    TMP DP  RH WIND       PRES   REMARKS
ALPENA         FLURRIES  34  33  96 N14       29.27F WCI  25
BEAVER ISLAND  LGT RAIN  34  33  98 NW8       29.39F WCI  27
BELLAIRE       MIX PCPN  35  34  94 CALM      29.37F
CADILLAC       LGT SNOW  33  32  96 NW8       29.32F WCI  26
CHARLEVOIX     LGT RAIN  36  36 100 NW9       29.40S WCI  29
FRANKFORT      LGT RAIN  37  36  96 N9        29.40S WCI  30
GAYLORD        LGT SNOW  33  32  96 NW7       29.30F FOG     WCI  27
GRAYLING       FLURRIES  33  33 100 NW7       29.31F WCI  27
HARBOR SPRINGS LGT RAIN  35  33  94 CALM      29.36S
HOUGHTON LAKE  LGT SNOW  33  31  92 NW8       29.31F FOG     WCI  26
MANISTEE       CLOUDY    37  34  87 NW7       29.39F WCI  32
OSCODA         LGT SNOW  33  33 100 NW8       29.27S WCI  26
PELLSTON       CLOUDY    34  33  96 NW7       29.36F WCI  28
ROGERS CITY    MIX PCPN  35  35 100 NW10G16   29.32F WCI  27
TRAVERSE CITY  FLURRIES  37  35  92 NW7       29.36F WCI  32
$$
MIZ007>008-015-250200-
EASTERN UPPER MICHIGAN

CITY           SKY/WX    TMP DP  RH WIND       PRES   REMARKS
KINROSS        CLOUDY    36  34  93 NW6       29.34F VSB 3/4 WCI  31
MACKINAC ISLAN CLOUDY    34  34 100 NW6       29.35S FOG     WCI  29
NEWBERRY       LGT SNOW  32  32 100 W7        29.37F WCI  26
S. S. MARIE    LGT RAIN  35  34  96 NW5       29.32F WCI  31
MUNISING         N/A     35  30  82 N13       29.43F WCI  26
$$
MIZ004>006-011>014-085-250200-
CENTRAL UPPER MICHIGAN

CITY           SKY/WX    TMP DP  RH WIND       PRES   REMARKS
MANISTIQUE     LGT SNOW  33  33 100 NW12G17   29.40F WCI  24
ESCANABA       CLOUDY    32  28  86 NW9       29.43F WCI  24
MENOMINEE      CLOUDY    34  30  86 NW7       29.45F WCI  28
SAWYER-GWINN   LGT SNOW  30  28  93 N8        29.43F WCI  23
$$
MIZ001>003-009>011-084-250200-
WESTERN UPPER MICHIGAN

CITY           SKY/WX    TMP DP  RH WIND       PRES   REMARKS
IRON MOUNTAIN  CLOUDY    31  27  85 NW9       29.45S WCI  23
HOUGHTON       CLOUDY    31  28  89 NW7       29.47S WCI  24
COPPER HARBOR    N/A     33  30  88 NE13      29.47F WCI  24
IRONWOOD       CLOUDY    30  28  93 CALM      29.50S
$$

ABBREVIATIONS USED IN REMARKS
   TC - TEMPERATURE IN CELSIUS
  WCI - WIND CHILL INDEX
   HX - HEAT INDEX
  VSB - VISIBILITY



USA.gov is the U.S. government's official web portal to all federal, state and local government web resources and services.